Time,TemperatureF,DewpointF,PressureIn,WindDirection,WindDirectionDegrees,WindSpeedMPH,WindSpeedGustMPH,Humidity,HourlyPrecipIn,Conditions,Clouds,dailyrainin,SoftwareType,DateUTC
2013-02-20 00:02:00,30.0,20.0,30.21,SW,224,0.0,1.0,66,0.00,,,0.18,,2013-02-20 06:02:00,
2013-02-20 00:11:00,30.0,20.0,30.21,SW,224,0.0,1.0,66,0.00,,,0.18,,2013-02-20 06:11:00,
2013-02-20 00:22:00,29.0,19.0,30.20,SW,222,0.0,0.0,66,0.00,,,0.18,,2013-02-20 06:22:00,
2013-02-20 00:32:00,27.0,20.0,30.22,WNW,294,0.0,5.0,74,0.00,,,0.11,,2013-02-20 06:32:00,
2013-02-20 00:42:00,27.0,20.0,30.22,WNW,294,0.0,5.0,74,0.00,,,0.11,,2013-02-20 06:42:00,
2013-02-20 00:51:00,28.0,20.0,30.23,SW,236,0.0,0.0,71,0.00,,,0.11,,2013-02-20 06:51:00,
2013-02-20 01:02:00,27.0,20.0,30.24,SSE,165,0.0,0.0,73,0.00,,,0.11,,2013-02-20 07:02:00,
2013-02-20 01:11:00,27.0,20.0,30.24,SSE,165,0.0,0.0,73,0.00,,,0.11,,2013-02-20 07:11:00,
2013-02-20 01:21:00,27.0,19.0,30.24,West,262,1.0,2.0,72,0.00,,,0.11,,2013-02-20 07:21:00,
2013-02-20 01:32:00,28.0,19.0,30.24,WNW,287,0.0,2.0,68,0.00,,,0.05,,2013-02-20 07:32:00,
2013-02-20 01:42:00,28.0,19.0,30.24,WNW,287,0.0,2.0,68,0.00,,,0.05,,2013-02-20 07:42:00,
2013-02-20 01:52:00,29.0,19.0,30.24,West,279,0.0,1.0,67,0.00,,,0.05,,2013-02-20 07:52:00,
2013-02-20 02:05:00,28.0,18.0,30.24,WNW,283,1.0,2.0,67,0.00,,,0.05,,2013-02-20 08:05:00,
2013-02-20 02:11:00,28.0,18.0,30.24,WNW,283,1.0,2.0,67,0.00,,,0.05,,2013-02-20 08:11:00,
2013-02-20 02:22:00,28.0,18.0,30.24,West,274,0.0,1.0,67,0.00,,,0.05,,2013-02-20 08:22:00,
2013-02-20 02:31:00,28.0,19.0,30.25,WNW,300,2.0,4.0,69,0.00,,,0.03,,2013-02-20 08:31:00,
2013-02-20 02:42:00,28.0,19.0,30.25,WNW,300,2.0,4.0,69,0.00,,,0.03,,2013-02-20 08:42:00,
2013-02-20 02:52:00,28.0,19.0,30.25,NW,320,4.0,6.0,68,0.00,,,0.03,,2013-02-20 08:52:00,
2013-02-20 03:02:00,28.0,19.0,30.25,NNW,328,2.0,6.0,69,0.00,,,0.03,,2013-02-20 09:02:00,
2013-02-20 03:11:00,28.0,19.0,30.25,NNW,328,2.0,6.0,69,0.00,,,0.03,,2013-02-20 09:11:00,
2013-02-20 03:21:00,28.0,19.0,30.25,NNW,328,2.0,6.0,69,0.00,,,0.03,,2013-02-20 09:21:00,
2013-02-20 03:32:00,27.0,19.0,30.25,WNW,294,1.0,6.0,70,0.00,,,0.03,,2013-02-20 09:32:00,
2013-02-20 03:42:00,27.0,19.0,30.25,WNW,294,1.0,6.0,70,0.00,,,0.03,,2013-02-20 09:42:00,
2013-02-20 03:52:00,26.0,18.0,30.25,NNW,328,2.0,6.0,72,0.00,,,0.03,,2013-02-20 09:52:00,
2013-02-20 04:01:00,26.0,19.0,30.25,NNW,330,3.0,5.0,75,0.00,,,0.03,,2013-02-20 10:01:00,
2013-02-20 04:12:00,26.0,19.0,30.25,NNW,330,3.0,5.0,75,0.00,,,0.03,,2013-02-20 10:12:00,
2013-02-20 04:22:00,25.0,18.0,30.27,NW,311,0.0,4.0,75,0.00,,,0.03,,2013-02-20 10:22:00,
2013-02-20 04:32:00,25.0,18.0,30.26,NW,319,1.0,3.0,75,0.00,,,0.03,,2013-02-20 10:32:00,
2013-02-20 04:42:00,25.0,18.0,30.26,NW,319,1.0,3.0,75,0.00,,,0.03,,2013-02-20 10:42:00,
2013-02-20 04:51:00,24.0,17.0,30.27,NW,304,1.0,5.0,73,0.00,,,0.03,,2013-02-20 10:51:00,
2013-02-20 05:02:00,24.0,16.0,30.27,WNW,284,1.0,4.0,72,0.00,,,0.03,,2013-02-20 11:02:00,
2013-02-20 05:11:00,24.0,17.0,30.28,West,277,0.0,2.0,73,0.00,,,0.03,,2013-02-20 11:11:00,
2013-02-20 05:21:00,24.0,17.0,30.28,West,277,0.0,2.0,73,0.00,,,0.03,,2013-02-20 11:21:00,
2013-02-20 05:32:00,23.0,16.0,30.28,NNW,335,2.0,4.0,74,0.00,,,0.03,,2013-02-20 11:32:00,
2013-02-20 05:42:00,23.0,16.0,30.28,NNW,335,2.0,4.0,74,0.00,,,0.03,,2013-02-20 11:42:00,
2013-02-20 05:52:00,23.0,16.0,30.28,NNW,336,2.0,9.0,75,0.00,,,0.03,,2013-02-20 11:52:00,
2013-02-20 06:02:00,22.0,15.0,30.28,NNW,333,3.0,6.0,74,0.00,,,0.03,,2013-02-20 12:02:00,
2013-02-20 06:12:00,22.0,15.0,30.28,NNW,333,3.0,6.0,74,0.00,,,0.03,,2013-02-20 12:12:00,
2013-02-20 06:22:00,22.0,15.0,30.28,NNW,330,3.0,8.0,73,0.00,,,0.03,,2013-02-20 12:22:00,
2013-02-20 06:32:00,22.0,14.0,30.29,WNW,283,4.0,9.0,72,0.00,,,0.02,,2013-02-20 12:32:00,
2013-02-20 06:42:00,22.0,14.0,30.29,WNW,283,4.0,9.0,72,0.00,,,0.02,,2013-02-20 12:42:00,
2013-02-20 06:52:00,22.0,15.0,30.30,WNW,287,1.0,4.0,73,0.00,,,0.02,,2013-02-20 12:52:00,
2013-02-20 07:01:00,22.0,15.0,30.30,NNW,333,2.0,5.0,73,0.00,,,0.02,,2013-02-20 13:01:00,
2013-02-20 07:12:00,22.0,15.0,30.30,NNW,333,2.0,5.0,73,0.00,,,0.02,,2013-02-20 13:12:00,
2013-02-20 07:22:00,23.0,15.0,30.31,WNW,293,1.0,3.0,71,0.00,,,0.02,,2013-02-20 13:22:00,
2013-02-20 07:32:00,23.0,15.0,30.32,North,349,1.0,4.0,71,0.00,,,0.00,,2013-02-20 13:32:00,
2013-02-20 07:42:00,23.0,15.0,30.32,North,349,1.0,4.0,71,0.00,,,0.00,,2013-02-20 13:42:00,
2013-02-20 07:51:00,24.0,16.0,30.32,North,358,2.0,8.0,71,0.00,,,0.00,,2013-02-20 13:51:00,
2013-02-20 08:01:00,24.0,16.0,30.32,NNW,343,4.0,8.0,71,0.00,,,0.00,,2013-02-20 14:01:00,
2013-02-20 08:11:00,24.0,16.0,30.32,NNW,343,4.0,8.0,71,0.00,,,0.00,,2013-02-20 14:11:00,
2013-02-20 08:22:00,24.0,16.0,30.31,North,4,4.0,8.0,70,0.00,,,0.00,,2013-02-20 14:22:00,
2013-02-20 08:32:00,24.0,15.0,30.31,North,359,5.0,11.0,69,0.00,,,0.00,,2013-02-20 14:32:00,
2013-02-20 08:42:00,24.0,15.0,30.31,North,359,5.0,11.0,69,0.00,,,0.00,,2013-02-20 14:42:00,
2013-02-20 08:52:00,25.0,16.0,30.32,NNE,13,5.0,11.0,69,0.00,,,0.00,,2013-02-20 14:52:00,
2013-02-20 09:02:00,25.0,16.0,30.33,NNW,335,4.0,9.0,67,0.00,,,0.00,,2013-02-20 15:02:00,
2013-02-20 09:11:00,25.0,16.0,30.33,NNW,335,4.0,9.0,67,0.00,,,0.00,,2013-02-20 15:11:00,
2013-02-20 09:22:00,26.0,16.0,30.34,North,5,5.0,10.0,65,0.00,,,0.00,,2013-02-20 15:22:00,
2013-02-20 09:32:00,27.0,16.0,30.34,WNW,290,2.0,8.0,62,0.00,,,0.00,,2013-02-20 15:32:00,
2013-02-20 09:42:00,27.0,16.0,30.34,WNW,290,2.0,8.0,62,0.00,,,0.00,,2013-02-20 15:42:00,
2013-02-20 09:52:00,28.0,16.0,30.33,North,360,4.0,6.0,60,0.00,,,0.00,,2013-02-20 15:52:00,
2013-02-20 10:01:00,28.0,16.0,30.33,NNW,330,5.0,8.0,61,0.00,,,0.00,,2013-02-20 16:01:00,
2013-02-20 10:12:00,28.0,16.0,30.33,NNW,330,5.0,8.0,61,0.00,,,0.00,,2013-02-20 16:12:00,
2013-02-20 10:21:00,28.0,16.0,30.34,NW,325,1.0,8.0,59,0.00,,,0.00,,2013-02-20 16:21:00,
2013-02-20 10:32:00,29.0,16.0,30.35,WNW,285,2.0,10.0,58,0.00,,,0.00,,2013-02-20 16:32:00,
2013-02-20 10:42:00,29.0,16.0,30.35,WNW,285,2.0,10.0,58,0.00,,,0.00,,2013-02-20 16:42:00,
2013-02-20 10:52:00,30.0,17.0,30.35,North,350,4.0,8.0,58,0.00,,,0.00,,2013-02-20 16:52:00,
2013-02-20 11:01:00,30.0,17.0,30.35,West,264,3.0,8.0,57,0.00,,,0.00,,2013-02-20 17:01:00,
2013-02-20 11:11:00,31.0,18.0,30.34,NW,304,2.0,7.0,57,0.00,,,0.00,,2013-02-20 17:11:00,
2013-02-20 11:21:00,31.0,18.0,30.34,NW,304,2.0,7.0,57,0.00,,,0.00,,2013-02-20 17:21:00,
2013-02-20 11:32:00,30.0,17.0,30.34,West,271,4.0,9.0,57,0.00,,,0.00,,2013-02-20 17:32:00,
2013-02-20 11:42:00,30.0,17.0,30.34,West,271,4.0,9.0,57,0.00,,,0.00,,2013-02-20 17:42:00,
2013-02-20 11:52:00,31.0,18.0,30.32,NW,322,5.0,9.0,57,0.00,,,0.00,,2013-02-20 17:52:00,
2013-02-20 12:02:00,31.0,18.0,30.31,NE,50,4.0,6.0,57,0.00,,,0.00,,2013-02-20 18:02:00,
2013-02-20 12:11:00,31.0,18.0,30.31,NE,50,4.0,6.0,57,0.00,,,0.00,,2013-02-20 18:11:00,
2013-02-20 12:22:00,32.0,18.0,30.32,WNW,283,3.0,7.0,56,0.00,,,0.00,,2013-02-20 18:22:00,
2013-02-20 12:32:00,32.0,18.0,30.31,WNW,295,2.0,8.0,55,0.00,,,0.00,,2013-02-20 18:32:00,
2013-02-20 12:42:00,32.0,18.0,30.31,WNW,295,2.0,8.0,55,0.00,,,0.00,,2013-02-20 18:42:00,
2013-02-20 12:52:00,33.0,17.0,30.31,WNW,296,3.0,7.0,52,0.00,,,0.00,,2013-02-20 18:52:00,
2013-02-20 13:01:00,33.0,17.0,30.30,WNW,294,1.0,6.0,51,0.00,,,0.00,,2013-02-20 19:01:00,
2013-02-20 13:11:00,33.0,17.0,30.30,WNW,294,1.0,6.0,51,0.00,,,0.00,,2013-02-20 19:11:00,
2013-02-20 13:21:00,33.0,17.0,30.30,West,278,4.0,9.0,51,0.00,,,0.00,,2013-02-20 19:21:00,
2013-02-20 13:32:00,34.0,18.0,30.29,WNW,284,4.0,8.0,51,0.00,,,0.00,,2013-02-20 19:32:00,
2013-02-20 13:41:00,34.0,18.0,30.29,WNW,284,4.0,8.0,51,0.00,,,0.00,,2013-02-20 19:41:00,
2013-02-20 13:52:00,33.0,17.0,30.29,NW,308,0.0,6.0,51,0.00,,,0.00,,2013-02-20 19:52:00,
2013-02-20 14:01:00,33.0,16.0,30.29,WNW,299,1.0,6.0,50,0.00,,,0.00,,2013-02-20 20:01:00,
2013-02-20 14:11:00,33.0,16.0,30.29,WNW,299,1.0,6.0,50,0.00,,,0.00,,2013-02-20 20:11:00,
2013-02-20 14:21:00,33.0,16.0,30.29,WNW,299,1.0,6.0,50,0.00,,,0.00,,2013-02-20 20:21:00,
2013-02-20 14:31:00,33.0,17.0,30.31,NNW,333,4.0,8.0,51,0.00,,,0.00,,2013-02-20 20:31:00,
2013-02-20 14:41:00,33.0,17.0,30.31,NNW,333,4.0,8.0,51,0.00,,,0.00,,2013-02-20 20:41:00,
2013-02-20 14:52:00,33.0,17.0,30.31,WNW,294,2.0,7.0,51,0.00,,,0.00,,2013-02-20 20:52:00,
2013-02-20 15:01:00,33.0,16.0,30.31,West,274,2.0,7.0,50,0.00,,,0.00,,2013-02-20 21:01:00,
2013-02-20 15:11:00,33.0,16.0,30.31,West,274,2.0,7.0,50,0.00,,,0.00,,2013-02-20 21:11:00,
2013-02-20 15:21:00,33.0,16.0,30.31,West,266,3.0,9.0,50,0.00,,,0.00,,2013-02-20 21:21:00,
2013-02-20 15:32:00,33.0,16.0,30.31,WNW,299,4.0,6.0,49,0.00,,,0.00,,2013-02-20 21:32:00,
2013-02-20 15:42:00,33.0,16.0,30.31,WNW,299,4.0,6.0,49,0.00,,,0.00,,2013-02-20 21:42:00,
2013-02-20 15:51:00,33.0,17.0,30.31,NNW,332,3.0,7.0,51,0.00,,,0.00,,2013-02-20 21:51:00,
2013-02-20 16:02:00,33.0,16.0,30.31,NNW,338,3.0,6.0,50,0.00,,,0.00,,2013-02-20 22:02:00,
2013-02-20 16:11:00,33.0,16.0,30.31,NNW,338,3.0,6.0,50,0.00,,,0.00,,2013-02-20 22:11:00,
2013-02-20 16:21:00,32.0,16.0,30.29,North,349,1.0,8.0,52,0.00,,,0.00,,2013-02-20 22:21:00,
2013-02-20 16:31:00,32.0,16.0,30.27,North,10,2.0,5.0,51,0.00,,,0.00,,2013-02-20 22:31:00,
2013-02-20 16:43:00,32.0,16.0,30.27,North,10,2.0,5.0,51,0.00,,,0.00,,2013-02-20 22:43:00,
2013-02-20 16:51:00,32.0,16.0,30.27,NW,326,2.0,6.0,51,0.00,,,0.00,,2013-02-20 22:51:00,
2013-02-20 17:01:00,32.0,17.0,30.28,North,354,1.0,5.0,53,0.00,,,0.00,,2013-02-20 23:01:00,
2013-02-20 17:12:00,32.0,17.0,30.28,North,354,1.0,5.0,53,0.00,,,0.00,,2013-02-20 23:12:00,
2013-02-20 17:22:00,33.0,16.0,30.28,North,352,3.0,6.0,50,0.00,,,0.00,,2013-02-20 23:22:00,
2013-02-20 17:32:00,32.0,16.0,30.28,NNW,339,3.0,5.0,52,0.00,,,0.00,,2013-02-20 23:32:00,
2013-02-20 17:42:00,32.0,16.0,30.28,NNW,339,3.0,5.0,52,0.00,,,0.00,,2013-02-20 23:42:00,
2013-02-20 17:52:00,31.0,17.0,30.27,North,357,1.0,2.0,56,0.00,,,0.00,,2013-02-20 23:52:00,
2013-02-20 18:03:00,30.0,17.0,30.29,West,276,0.0,1.0,58,0.00,,,0.00,,2013-02-21 00:03:00,
2013-02-20 18:11:00,30.0,17.0,30.29,West,276,0.0,1.0,58,0.00,,,0.00,,2013-02-21 00:11:00,
2013-02-20 18:22:00,30.0,17.0,30.28,WNW,284,0.0,0.0,59,0.00,,,0.00,,2013-02-21 00:22:00,
2013-02-20 18:32:00,28.0,16.0,30.28,WNW,284,0.0,0.0,61,0.00,,,0.00,,2013-02-21 00:32:00,
2013-02-20 18:42:00,28.0,16.0,30.28,WNW,284,0.0,0.0,61,0.00,,,0.00,,2013-02-21 00:42:00,
2013-02-20 18:52:00,26.0,16.0,30.29,West,276,0.0,0.0,66,0.00,,,0.00,,2013-02-21 00:52:00,
2013-02-20 19:01:00,26.0,16.0,30.29,West,276,0.0,0.0,66,0.00,,,0.00,,2013-02-21 01:01:00,
2013-02-20 19:11:00,26.0,16.0,30.29,West,276,0.0,0.0,66,0.00,,,0.00,,2013-02-21 01:11:00,
2013-02-20 19:21:00,26.0,18.0,30.28,East,97,0.0,0.0,71,0.00,,,0.00,,2013-02-21 01:21:00,
2013-02-20 19:32:00,25.0,18.0,30.28,East,97,0.0,0.0,74,0.00,,,0.00,,2013-02-21 01:32:00,
2013-02-20 19:42:00,25.0,18.0,30.28,East,97,0.0,0.0,74,0.00,,,0.00,,2013-02-21 01:42:00,
2013-02-20 19:51:00,25.0,19.0,30.28,SSW,208,0.0,0.0,76,0.00,,,0.00,,2013-02-21 01:51:00,
2013-02-20 20:02:00,25.0,18.0,30.28,SW,214,0.0,0.0,74,0.00,,,0.00,,2013-02-21 02:02:00,
2013-02-20 20:11:00,25.0,18.0,30.28,SW,214,0.0,0.0,74,0.00,,,0.00,,2013-02-21 02:11:00,
2013-02-20 20:22:00,24.0,18.0,30.27,SW,214,0.0,0.0,78,0.00,,,0.00,,2013-02-21 02:22:00,
2013-02-20 20:32:00,24.0,19.0,30.28,SW,214,0.0,0.0,80,0.00,,,0.00,,2013-02-21 02:32:00,
2013-02-20 20:42:00,24.0,19.0,30.28,SW,214,0.0,0.0,80,0.00,,,0.00,,2013-02-21 02:42:00,
2013-02-20 20:51:00,24.0,19.0,30.28,SW,214,0.0,0.0,80,0.00,,,0.00,,2013-02-21 02:51:00,
2013-02-20 21:02:00,23.0,19.0,30.29,SW,214,0.0,0.0,83,0.00,,,0.00,,2013-02-21 03:02:00,
2013-02-20 21:12:00,23.0,19.0,30.29,SW,214,0.0,0.0,83,0.00,,,0.00,,2013-02-21 03:12:00,
2013-02-20 21:21:00,23.0,19.0,30.29,South,169,0.0,0.0,83,0.00,,,0.00,,2013-02-21 03:21:00,
2013-02-20 21:32:00,22.0,18.0,30.29,South,169,0.0,0.0,85,0.00,,,0.00,,2013-02-21 03:32:00,
2013-02-20 21:42:00,22.0,18.0,30.29,South,169,0.0,0.0,85,0.00,,,0.00,,2013-02-21 03:42:00,
2013-02-20 21:51:00,23.0,19.0,30.28,SSE,162,0.0,0.0,83,0.00,,,0.00,,2013-02-21 03:51:00,
2013-02-20 22:01:00,23.0,19.0,30.28,SSE,162,0.0,0.0,83,0.00,,,0.00,,2013-02-21 04:01:00,
2013-02-20 22:11:00,23.0,19.0,30.28,SSE,162,0.0,0.0,83,0.00,,,0.00,,2013-02-21 04:11:00,
2013-02-20 22:22:00,23.0,19.0,30.29,SW,214,0.0,0.0,85,0.00,,,0.00,,2013-02-21 04:22:00,
2013-02-20 22:32:00,22.0,18.0,30.29,East,94,0.0,0.0,84,0.00,,,0.00,,2013-02-21 04:32:00,
2013-02-20 22:42:00,22.0,18.0,30.29,East,94,0.0,0.0,84,0.00,,,0.00,,2013-02-21 04:42:00,
2013-02-20 22:52:00,21.0,17.0,30.28,NE,49,0.0,0.0,86,0.00,,,0.00,,2013-02-21 04:52:00,
2013-02-20 23:03:00,22.0,18.0,30.29,NE,51,0.0,0.0,85,0.00,,,0.00,,2013-02-21 05:03:00,
2013-02-20 23:12:00,22.0,18.0,30.29,NE,51,0.0,0.0,85,0.00,,,0.00,,2013-02-21 05:12:00,
2013-02-20 23:22:00,21.0,17.0,30.28,NE,51,0.0,0.0,85,0.00,,,0.00,,2013-02-21 05:22:00,
2013-02-20 23:36:00,22.0,18.0,30.28,NE,51,0.0,0.0,86,0.00,,,0.00,,2013-02-21 05:36:00,
2013-02-20 23:45:00,22.0,18.0,30.28,NE,51,0.0,0.0,86,0.00,,,0.00,,2013-02-21 05:45:00,
2013-02-20 23:54:00,22.0,18.0,30.28,NE,51,0.0,0.0,84,0.00,,,0.00,,2013-02-21 05:54:00,